GFSMW_prec_precacc12_096.txt.gz
Total_Precipitation_Accumulation
0.00 0.00 0.00 0.00 0.00 0.00 0.00 0.00 0.00 0.01 0.02 0.04 0.06 0.05 0.04 0.02 0.09 0.21 0.21 0.23 0.27 0.23 0.14 0.13 0.08 0.01 0.01 0.00 0.00 0.00 0.00 0.00 0.00 0.00 0.00 0.00 0.00 0.00 0.00 0.00 0.00 0.00 0.00
0.00 0.00 0.00 0.00 0.00 0.00 0.00 0.01 0.00 0.01 0.02 0.03 0.05 0.04 0.02 0.01 0.04 0.12 0.22 0.21 0.23 0.17 0.16 0.14 0.08 0.02 0.00 0.00 0.00 0.00 0.00 0.00 0.00 0.00 0.00 0.00 0.00 0.00 0.00 0.00 0.00 0.00 0.00
0.00 0.00 0.00 0.00 0.00 0.00 0.00 0.00 0.00 0.01 0.04 0.03 0.09 0.11 0.08 0.03 0.05 0.07 0.15 0.23 0.21 0.17 0.13 0.14 0.06 0.02 0.01 0.00 0.00 0.00 0.00 0.00 0.00 0.00 0.00 0.06 0.13 0.07 0.00 0.00 0.00 0.00 0.00
0.00 0.00 0.00 0.00 0.00 0.00 0.00 0.00 0.01 0.01 0.03 0.02 0.03 0.06 0.04 0.01 0.02 0.02 0.05 0.14 0.23 0.22 0.12 0.11 0.05 0.02 0.01 0.00 0.00 0.00 0.00 0.00 0.00 0.00 0.01 0.03 0.08 0.10 0.09 0.01 0.00 0.00 0.00
0.00 0.00 0.00 0.00 0.00 0.00 0.00 0.00 0.01 0.01 0.01 0.02 0.02 0.05 0.02 0.01 0.02 0.01 0.02 0.07 0.20 0.26 0.17 0.10 0.05 0.02 0.01 0.00 0.01 0.01 0.02 0.02 0.03 0.02 0.00 0.01 0.02 0.03 0.01 0.03 0.04 0.00 0.00
0.00 0.00 0.00 0.00 0.00 0.00 0.00 0.00 0.01 0.01 0.01 0.01 0.01 0.03 0.07 0.02 0.01 0.01 0.00 0.01 0.07 0.21 0.24 0.16 0.07 0.06 0.04 0.06 0.01 0.05 0.03 0.06 0.05 0.02 0.01 0.00 0.00 0.01 0.01 0.00 0.03 0.08 0.11
0.00 0.00 0.00 0.00 0.00 0.00 0.00 0.00 0.01 0.02 0.01 0.01 0.01 0.01 0.03 0.05 0.01 0.00 0.00 0.00 0.01 0.06 0.16 0.20 0.16 0.11 0.09 0.09 0.05 0.03 0.04 0.05 0.07 0.04 0.01 0.03 0.00 0.02 0.04 0.03 0.01 0.03 0.05
0.00 0.00 0.00 0.00 0.00 0.00 0.00 0.00 0.00 0.01 0.01 0.01 0.01 0.01 0.01 0.01 0.00 0.00 0.00 0.00 0.00 0.01 0.03 0.09 0.10 0.07 0.07 0.09 0.05 0.02 0.00 0.03 0.02 0.02 0.01 0.03 0.02 0.01 0.01 0.01 0.02 0.01 0.01
0.00 0.00 0.00 0.00 0.00 0.00 0.00 0.00 0.00 0.00 0.00 0.00 0.00 0.01 0.01 0.01 0.00 0.00 0.00 0.00 0.00 0.00 0.00 0.02 0.09 0.08 0.05 0.05 0.05 0.04 0.02 0.01 0.02 0.01 0.03 0.06 0.02 0.06 0.05 0.05 0.05 0.08 0.03
0.00 0.00 0.00 0.00 0.00 0.00 0.00 0.00 0.00 0.00 0.00 0.01 0.00 0.00 0.01 0.01 0.01 0.00 0.00 0.00 0.00 0.00 0.00 0.00 0.04 0.06 0.07 0.06 0.06 0.04 0.04 0.04 0.03 0.04 0.07 0.15 0.06 0.16 0.14 0.15 0.18 0.32 0.37
0.00 0.00 0.00 0.00 0.00 0.00 0.00 0.00 0.00 0.00 0.00 0.00 0.00 0.01 0.01 0.01 0.01 0.01 0.00 0.00 0.00 0.00 0.00 0.00 0.01 0.03 0.03 0.06 0.08 0.03 0.04 0.05 0.06 0.16 0.20 0.09 0.14 0.16 0.10 0.19 0.26 0.22 0.27
0.00 0.00 0.00 0.00 0.00 0.00 0.00 0.00 0.00 0.00 0.00 0.00 0.00 0.00 0.00 0.00 0.00 0.00 0.00 0.00 0.00 0.00 0.00 0.00 0.00 0.01 0.02 0.04 0.05 0.05 0.07 0.06 0.06 0.08 0.19 0.06 0.13 0.11 0.06 0.11 0.08 0.08 0.11
0.00 0.00 0.00 0.00 0.00 0.00 0.00 0.00 0.00 0.00 0.00 0.00 0.00 0.00 0.00 0.00 0.00 0.00 0.00 0.00 0.00 0.00 0.00 0.00 0.00 0.00 0.00 0.00 0.00 0.01 0.02 0.05 0.04 0.05 0.07 0.03 0.07 0.02 0.04 0.07 0.05 0.04 0.08
0.00 0.00 0.00 0.00 0.00 0.00 0.00 0.00 0.00 0.00 0.00 0.00 0.00 0.00 0.00 0.00 0.00 0.00 0.00 0.01 0.00 0.00 0.00 0.00 0.00 0.00 0.00 0.00 0.00 0.00 0.01 0.02 0.01 0.02 0.04 0.04 0.05 0.01 0.03 0.05 0.06 0.09 0.11
0.00 0.00 0.00 0.00 0.00 0.00 0.00 0.00 0.00 0.00 0.00 0.00 0.00 0.00 0.00 0.00 0.00 0.00 0.00 0.00 0.01 0.00 0.00 0.00 0.00 0.00 0.00 0.00 0.00 0.01 0.00 0.00 0.01 0.01 0.03 0.04 0.05 0.07 0.09 0.10 0.08 0.10 0.16
0.00 0.00 0.00 0.02 0.04 0.05 0.03 0.01 0.02 0.04 0.02 0.00 0.00 0.00 0.00 0.00 0.00 0.00 0.00 0.00 0.01 0.00 0.00 0.00 0.00 0.00 0.00 0.00 0.00 0.01 0.03 0.05 0.04 0.03 0.04 0.07 0.16 0.13 0.21 0.21 0.23 0.21 0.17
0.00 0.00 0.01 0.01 0.06 0.17 0.21 0.08 0.11 0.09 0.07 0.03 0.03 0.01 0.00 0.00 0.00 0.00 0.00 0.00 0.00 0.00 0.00 0.00 0.00 0.01 0.02 0.01 0.01 0.01 0.02 0.03 0.06 0.08 0.10 0.13 0.17 0.23 0.12 0.29 0.30 0.32 0.43
0.01 0.00 0.00 0.00 0.00 0.03 0.08 0.11 0.05 0.09 0.11 0.05 0.03 0.06 0.04 0.04 0.00 0.00 0.00 0.01 0.00 0.00 0.01 0.01 0.01 0.01 0.02 0.03 0.03 0.04 0.05 0.07 0.10 0.12 0.13 0.17 0.22 0.32 0.34 0.30 0.31 0.29 0.28
0.01 0.00 0.00 0.00 0.00 0.00 0.00 0.01 0.04 0.06 0.07 0.08 0.05 0.10 0.10 0.05 0.04 0.01 0.00 0.01 0.01 0.01 0.01 0.00 0.00 0.01 0.02 0.06 0.05 0.05 0.07 0.13 0.15 0.16 0.21 0.28 0.28 0.51 0.34 0.17 0.18 0.23 0.23
0.02 0.01 0.00 0.00 0.00 0.00 0.00 0.00 0.01 0.05 0.06 0.04 0.10 0.20 0.13 0.07 0.05 0.06 0.01 0.01 0.01 0.02 0.03 0.02 0.01 0.06 0.04 0.11 0.08 0.07 0.05 0.12 0.14 0.13 0.20 0.34 0.15 0.21 0.14 0.08 0.06 0.07 0.07
0.01 0.00 0.00 0.00 0.00 0.00 0.00 0.00 0.00 0.02 0.06 0.03 0.11 0.17 0.16 0.13 0.09 0.10 0.05 0.04 0.05 0.07 0.09 0.10 0.09 0.08 0.11 0.12 0.13 0.10 0.06 0.09 0.12 0.14 0.16 0.26 0.31 0.17 0.14 0.11 0.11 0.15 0.14
0.03 0.01 0.00 0.00 0.00 0.00 0.00 0.00 0.00 0.03 0.08 0.09 0.10 0.11 0.19 0.19 0.17 0.12 0.08 0.05 0.08 0.09 0.08 0.11 0.14 0.15 0.17 0.29 0.23 0.19 0.20 0.22 0.12 0.19 0.21 0.27 0.26 0.15 0.15 0.15 0.16 0.16 0.14
0.00 0.00 0.00 0.00 0.00 0.00 0.00 0.00 0.00 0.01 0.05 0.09 0.12 0.15 0.17 0.21 0.25 0.26 0.24 0.21 0.15 0.11 0.10 0.11 0.14 0.16 0.16 0.27 0.33 0.25 0.24 0.24 0.17 0.25 0.35 0.40 0.36 0.30 0.29 0.29 0.27 0.25 0.19
0.00 0.00 0.00 0.00 0.00 0.00 0.00 0.01 0.01 0.01 0.01 0.04 0.07 0.10 0.13 0.20 0.22 0.25 0.28 0.33 0.36 0.35 0.33 0.33 0.32 0.33 0.31 0.31 0.33 0.37 0.42 0.52 0.60 0.74 0.79 0.75 0.71 0.63 0.51 0.36 0.21 0.10 0.04
0.00 0.01 0.02 0.02 0.01 0.02 0.03 0.04 0.05 0.05 0.05 0.05 0.05 0.09 0.14 0.16 0.17 0.23 0.34 0.37 0.47 0.55 0.58 0.63 0.66 0.72 0.83 1.03 1.06 1.00 0.97 0.93 0.88 0.81 0.75 0.63 0.48 0.34 0.22 0.13 0.06 0.02 0.01
0.01 0.03 0.09 0.14 0.21 0.20 0.16 0.14 0.14 0.15 0.19 0.18 0.16 0.17 0.13 0.18 0.28 0.33 0.45 0.61 0.66 0.63 0.69 0.78 0.81 1.04 1.13 1.17 1.04 0.90 0.79 0.65 0.49 0.32 0.25 0.20 0.14 0.08 0.04 0.02 0.01 0.00 0.00

GFSMW_prec_precacc12_102.txt.gz
Total_Precipitation_Accumulation
0.00 0.00 0.00 0.00 0.00 0.00 0.00 0.00 0.00 0.00 0.00 0.00 0.00 0.00 0.00 0.01 0.04 0.13 0.16 0.21 0.30 0.26 0.20 0.27 0.27 0.37 0.25 0.06 0.02 0.04 0.01 0.00 0.00 0.00 0.00 0.00 0.00 0.00 0.00 0.00 0.00 0.00 0.00
0.00 0.00 0.00 0.00 0.00 0.00 0.00 0.00 0.00 0.00 0.00 0.00 0.00 0.00 0.00 0.01 0.03 0.10 0.23 0.23 0.42 0.40 0.22 0.23 0.18 0.21 0.15 0.04 0.02 0.02 0.00 0.00 0.00 0.00 0.00 0.00 0.00 0.00 0.00 0.00 0.00 0.00 0.00
0.00 0.00 0.00 0.00 0.00 0.00 0.00 0.00 0.00 0.00 0.00 0.00 0.00 0.00 0.00 0.01 0.03 0.07 0.17 0.31 0.40 0.48 0.45 0.33 0.20 0.09 0.05 0.02 0.01 0.01 0.00 0.00 0.00 0.00 0.00 0.00 0.00 0.00 0.00 0.00 0.00 0.00 0.00
0.00 0.00 0.00 0.00 0.00 0.00 0.00 0.00 0.00 0.00 0.01 0.00 0.00 0.00 0.00 0.00 0.01 0.01 0.05 0.15 0.41 0.58 0.36 0.44 0.35 0.18 0.04 0.01 0.00 0.00 0.00 0.00 0.00 0.00 0.00 0.01 0.03 0.02 0.00 0.00 0.00 0.00 0.00
0.00 0.00 0.00 0.00 0.00 0.00 0.00 0.00 0.00 0.00 0.00 0.00 0.00 0.00 0.00 0.00 0.00 0.00 0.02 0.07 0.21 0.49 0.56 0.25 0.32 0.18 0.05 0.01 0.00 0.00 0.00 0.00 0.00 0.00 0.00 0.01 0.02 0.02 0.00 0.00 0.00 0.00 0.00
0.00 0.00 0.00 0.00 0.00 0.00 0.00 0.00 0.00 0.01 0.01 0.00 0.00 0.00 0.00 0.00 0.00 0.00 0.00 0.01 0.08 0.23 0.38 0.43 0.30 0.29 0.22 0.06 0.01 0.01 0.00 0.01 0.02 0.01 0.01 0.00 0.00 0.01 0.00 0.00 0.00 0.00 0.01
0.00 0.00 0.00 0.00 0.00 0.00 0.00 0.00 0.00 0.01 0.01 0.00 0.00 0.00 0.00 0.00 0.00 0.00 0.00 0.00 0.02 0.09 0.21 0.30 0.43 0.39 0.33 0.19 0.10 0.05 0.03 0.04 0.06 0.03 0.01 0.02 0.00 0.02 0.03 0.01 0.02 0.00 0.00
0.00 0.00 0.00 0.00 0.00 0.00 0.00 0.00 0.00 0.00 0.01 0.00 0.00 0.00 0.00 0.00 0.00 0.00 0.00 0.00 0.01 0.04 0.08 0.17 0.27 0.37 0.52 0.44 0.27 0.10 0.04 0.04 0.02 0.03 0.01 0.02 0.02 0.00 0.02 0.02 0.03 0.03 0.01
0.00 0.00 0.00 0.00 0.00 0.00 0.00 0.00 0.00 0.00 0.00 0.00 0.00 0.00 0.00 0.00 0.00 0.00 0.00 0.00 0.00 0.04 0.07 0.07 0.16 0.29 0.47 0.44 0.35 0.26 0.14 0.07 0.05 0.01 0.00 0.01 0.01 0.03 0.03 0.04 0.04 0.08 0.04
0.00 0.00 0.00 0.00 0.00 0.00 0.00 0.00 0.00 0.00 0.00 0.00 0.00 0.00 0.00 0.00 0.00 0.00 0.00 0.00 0.00 0.02 0.05 0.02 0.05 0.10 0.18 0.23 0.21 0.21 0.21 0.18 0.10 0.03 0.03 0.07 0.01 0.03 0.06 0.10 0.14 0.18 0.17
0.00 0.00 0.00 0.00 0.00 0.00 0.00 0.00 0.00 0.00 0.00 0.00 0.00 0.00 0.00 0.00 0.00 0.00 0.00 0.00 0.00 0.00 0.01 0.01 0.01 0.04 0.06 0.07 0.09 0.06 0.09 0.11 0.06 0.09 0.12 0.06 0.09 0.05 0.02 0.04 0.09 0.09 0.14
0.01 0.00 0.00 0.00 0.00 0.00 0.00 0.00 0.00 0.00 0.00 0.00 0.00 0.00 0.00 0.00 0.00 0.00 0.00 0.00 0.00 0.00 0.00 0.00 0.00 0.01 0.04 0.04 0.03 0.04 0.06 0.05 0.03 0.05 0.11 0.04 0.12 0.07 0.04 0.06 0.04 0.05 0.07
0.02 0.00 0.00 0.00 0.00 0.00 0.00 0.00 0.00 0.02 0.03 0.00 0.00 0.00 0.00 0.00 0.00 0.00 0.00 0.00 0.00 0.00 0.00 0.00 0.00 0.01 0.02 0.02 0.01 0.01 0.03 0.04 0.03 0.03 0.04 0.02 0.07 0.02 0.02 0.05 0.03 0.01 0.03
0.04 0.01 0.02 0.00 0.00 0.00 0.00 0.01 0.04 0.08 0.07 0.01 0.00 0.00 0.00 0.00 0.00 0.00 0.00 0.00 0.00 0.00 0.00 0.00 0.00 0.00 0.00 0.00 0.01 0.01 0.01 0.01 0.01 0.01 0.03 0.03 0.04 0.01 0.02 0.03 0.02 0.03 0.05
0.04 0.01 0.04 0.04 0.03 0.03 0.07 0.10 0.13 0.18 0.15 0.05 0.01 0.00 0.00 0.00 0.00 0.00 0.00 0.00 0.00 0.00 0.00 0.00 0.00 0.00 0.00 0.00 0.00 0.00 0.00 0.00 0.00 0.00 0.02 0.01 0.01 0.02 0.03 0.05 0.04 0.06 0.10
0.06 0.01 0.06 0.15 0.17 0.20 0.17 0.20 0.29 0.42 0.25 0.15 0.11 0.03 0.00 0.00 0.00 0.00 0.00 0.00 0.00 0.00 0.00 0.00 0.00 0.00 0.00 0.00 0.00 0.00 0.01 0.03 0.03 0.02 0.01 0.00 0.01 0.01 0.05 0.08 0.13 0.15 0.16
0.14 0.03 0.04 0.12 0.19 0.35 0.37 0.30 0.44 0.52 0.40 0.29 0.21 0.12 0.06 0.02 0.01 0.00 0.00 0.00 0.00 0.00 0.00 0.00 0.00 0.00 0.00 0.00 0.00 0.00 0.01 0.02 0.03 0.03 0.03 0.02 0.03 0.07 0.07 0.16 0.19 0.22 0.32
0.07 0.07 0.03 0.04 0.06 0.09 0.14 0.18 0.21 0.28 0.24 0.16 0.17 0.21 0.13 0.08 0.04 0.02 0.01 0.01 0.01 0.00 0.01 0.00 0.00 0.00 0.00 0.00 0.00 0.00 0.03 0.03 0.03 0.03 0.05 0.09 0.15 0.21 0.26 0.26 0.26 0.23 0.20
0.03 0.02 0.03 0.01 0.01 0.01 0.01 0.02 0.08 0.16 0.20 0.15 0.20 0.21 0.18 0.13 0.11 0.09 0.08 0.04 0.02 0.02 0.01 0.01 0.00 0.01 0.01 0.03 0.02 0.02 0.04 0.05 0.07 0.10 0.14 0.20 0.23 0.37 0.30 0.16 0.16 0.19 0.21
0.03 0.02 0.00 0.00 0.00 0.00 0.00 0.00 0.01 0.07 0.10 0.09 0.16 0.24 0.16 0.12 0.10 0.13 0.10 0.09 0.06 0.04 0.04 0.04 0.02 0.04 0.03 0.06 0.05 0.04 0.04 0.08 0.10 0.10 0.15 0.31 0.20 0.29 0.21 0.13 0.13 0.21 0.25
0.01 0.01 0.00 0.00 0.00 0.00 0.00 0.00 0.00 0.02 0.06 0.03 0.12 0.19 0.18 0.16 0.13 0.16 0.13 0.10 0.09 0.09 0.13 0.14 0.11 0.08 0.11 0.09 0.13 0.10 0.06 0.10 0.14 0.19 0.20 0.32 0.44 0.28 0.29 0.26 0.25 0.40 0.44
0.13 0.03 0.00 0.00 0.00 0.00 0.00 0.00 0.00 0.02 0.08 0.08 0.09 0.10 0.18 0.21 0.22 0.18 0.16 0.14 0.13 0.14 0.17 0.23 0.27 0.29 0.28 0.43 0.34 0.35 0.43 0.43 0.25 0.33 0.34 0.50 0.53 0.41 0.44 0.42 0.47 0.50 0.47
0.23 0.11 0.02 0.00 0.00 0.00 0.00 0.00 0.00 0.01 0.04 0.08 0.11 0.13 0.15 0.20 0.26 0.29 0.28 0.27 0.28 0.27 0.24 0.27 0.40 0.48 0.52 0.71 0.80 0.71 0.81 0.86 0.68 0.73 0.86 0.93 0.80 0.71 0.74 0.77 0.76 0.72 0.66
0.17 0.04 0.01 0.00 0.00 0.00 0.00 0.01 0.01 0.01 0.01 0.03 0.05 0.07 0.09 0.15 0.19 0.24 0.29 0.38 0.48 0.59 0.69 0.75 0.78 0.76 0.71 0.75 0.87 0.95 1.01 1.16 1.31 1.65 1.75 1.69 1.58 1.49 1.40 1.26 1.07 0.86 0.66
0.02 0.03 0.02 0.00 0.00 0.00 0.00 0.01 0.01 0.01 0.01 0.01 0.01 0.04 0.08 0.11 0.13 0.20 0.31 0.39 0.55 0.68 0.74 0.80 0.86 0.97 1.09 1.24 1.26 1.23 1.24 1.30 1.38 1.45 1.53 1.47 1.27 1.04 0.81 0.61 0.41 0.24 0.14
0.02 0.01 0.00 0.00 0.00 0.01 0.01 0.01 0.01 0.03 0.05 0.06 0.06 0.06 0.05 0.11 0.19 0.26 0.37 0.49 0.59 0.63 0.71 0.82 0.91 1.17 1.30 1.40 1.33 1.32 1.31 1.24 1.10 0.88 0.74 0.60 0.47 0.35 0.25 0.15 0.09 0.05 0.03

GFSMW_prec_precacc12_105.txt.gz
Total_Precipitation_Accumulation
0.00 0.00 0.00 0.00 0.00 0.00 0.00 0.00 0.00 0.00 0.00 0.00 0.00 0.00 0.00 0.01 0.03 0.10 0.12 0.15 0.19 0.21 0.16 0.25 0.28 0.47 0.49 0.36 0.11 0.12 0.15 0.06 0.00 0.00 0.00 0.00 0.00 0.00 0.00 0.00 0.00 0.00 0.00
0.00 0.00 0.00 0.00 0.00 0.00 0.00 0.00 0.00 0.00 0.00 0.00 0.00 0.00 0.00 0.01 0.02 0.05 0.14 0.15 0.31 0.35 0.19 0.25 0.24 0.27 0.32 0.29 0.19 0.14 0.15 0.09 0.00 0.00 0.00 0.00 0.00 0.00 0.00 0.00 0.00 0.00 0.00
0.00 0.00 0.00 0.00 0.00 0.00 0.00 0.00 0.00 0.00 0.00 0.00 0.00 0.00 0.00 0.01 0.02 0.03 0.06 0.16 0.28 0.41 0.44 0.34 0.26 0.12 0.10 0.16 0.17 0.16 0.10 0.07 0.02 0.00 0.00 0.00 0.00 0.00 0.00 0.00 0.00 0.00 0.00
0.00 0.00 0.00 0.00 0.00 0.00 0.00 0.00 0.00 0.00 0.00 0.00 0.00 0.00 0.00 0.00 0.01 0.01 0.02 0.06 0.29 0.51 0.35 0.51 0.50 0.35 0.12 0.13 0.15 0.13 0.09 0.08 0.05 0.01 0.00 0.00 0.00 0.00 0.00 0.00 0.00 0.00 0.00
0.00 0.00 0.00 0.00 0.00 0.00 0.00 0.00 0.00 0.00 0.00 0.00 0.00 0.00 0.00 0.00 0.00 0.00 0.02 0.06 0.19 0.47 0.59 0.28 0.43 0.36 0.17 0.09 0.09 0.09 0.08 0.04 0.03 0.01 0.00 0.00 0.00 0.00 0.00 0.00 0.00 0.00 0.00
0.00 0.00 0.00 0.00 0.00 0.00 0.00 0.00 0.00 0.00 0.01 0.00 0.00 0.00 0.00 0.00 0.00 0.00 0.00 0.01 0.09 0.26 0.43 0.58 0.39 0.35 0.26 0.08 0.03 0.03 0.02 0.01 0.00 0.00 0.00 0.00 0.00 0.01 0.00 0.00 0.00 0.00 0.01
0.00 0.00 0.00 0.00 0.00 0.00 0.00 0.00 0.00 0.00 0.01 0.00 0.00 0.00 0.00 0.00 0.00 0.00 0.00 0.00 0.02 0.09 0.23 0.34 0.50 0.46 0.36 0.19 0.08 0.04 0.01 0.00 0.00 0.00 0.00 0.00 0.00 0.02 0.03 0.01 0.02 0.00 0.00
0.00 0.00 0.00 0.00 0.00 0.00 0.00 0.00 0.00 0.00 0.01 0.01 0.00 0.00 0.00 0.00 0.00 0.00 0.00 0.00 0.01 0.04 0.08 0.18 0.27 0.39 0.61 0.47 0.25 0.10 0.05 0.03 0.02 0.02 0.01 0.01 0.02 0.00 0.02 0.02 0.04 0.05 0.02
0.00 0.00 0.00 0.00 0.00 0.00 0.00 0.00 0.00 0.00 0.00 0.01 0.00 0.00 0.00 0.00 0.00 0.00 0.00 0.00 0.00 0.04 0.07 0.08 0.16 0.29 0.48 0.52 0.49 0.33 0.15 0.10 0.09 0.05 0.03 0.01 0.00 0.03 0.02 0.02 0.03 0.05 0.06
0.00 0.00 0.00 0.00 0.00 0.00 0.00 0.00 0.00 0.00 0.00 0.01 0.00 0.00 0.00 0.00 0.00 0.00 0.00 0.00 0.00 0.02 0.05 0.03 0.05 0.12 0.21 0.25 0.27 0.30 0.24 0.20 0.14 0.11 0.09 0.06 0.01 0.02 0.05 0.07 0.11 0.11 0.12
0.00 0.00 0.00 0.00 0.00 0.00 0.00 0.00 0.00 0.00 0.00 0.00 0.00 0.00 0.00 0.00 0.00 0.00 0.00 0.00 0.00 0.00 0.01 0.01 0.01 0.04 0.09 0.14 0.15 0.09 0.10 0.14 0.12 0.13 0.13 0.07 0.03 0.02 0.01 0.04 0.08 0.08 0.11
0.02 0.00 0.00 0.00 0.00 0.00 0.00 0.00 0.00 0.00 0.01 0.02 0.01 0.00 0.00 0.00 0.00 0.00 0.00 0.00 0.00 0.00 0.00 0.00 0.00 0.01 0.03 0.05 0.06 0.05 0.04 0.03 0.03 0.04 0.05 0.03 0.09 0.05 0.02 0.04 0.04 0.04 0.05
0.09 0.03 0.03 0.02 0.03 0.02 0.00 0.00 0.01 0.03 0.04 0.01 0.00 0.01 0.00 0.00 0.00 0.00 0.00 0.00 0.00 0.00 0.00 0.00 0.00 0.01 0.02 0.03 0.04 0.03 0.02 0.02 0.03 0.03 0.03 0.01 0.05 0.03 0.01 0.02 0.02 0.02 0.05
0.22 0.20 0.22 0.12 0.12 0.09 0.02 0.02 0.05 0.09 0.09 0.03 0.01 0.00 0.00 0.00 0.00 0.00 0.00 0.00 0.00 0.00 0.00 0.00 0.00 0.00 0.00 0.01 0.01 0.02 0.01 0.01 0.02 0.01 0.01 0.01 0.03 0.01 0.02 0.03 0.03 0.04 0.05
0.24 0.21 0.60 0.40 0.15 0.12 0.13 0.13 0.14 0.23 0.22 0.10 0.03 0.00 0.00 0.00 0.00 0.00 0.00 0.00 0.00 0.00 0.00 0.00 0.00 0.00 0.00 0.00 0.01 0.00 0.00 0.00 0.00 0.00 0.00 0.00 0.01 0.02 0.02 0.03 0.03 0.05 0.08
0.25 0.20 0.30 0.45 0.27 0.27 0.25 0.32 0.38 0.52 0.36 0.23 0.19 0.06 0.01 0.00 0.00 0.00 0.00 0.00 0.00 0.00 0.00 0.00 0.00 0.00 0.00 0.00 0.00 0.00 0.00 0.00 0.00 0.00 0.01 0.00 0.00 0.00 0.02 0.04 0.06 0.08 0.10
0.27 0.22 0.22 0.40 0.28 0.36 0.42 0.41 0.59 0.66 0.51 0.38 0.29 0.15 0.08 0.02 0.01 0.00 0.00 0.00 0.00 0.00 0.00 0.00 0.00 0.00 0.00 0.00 0.00 0.00 0.00 0.00 0.01 0.02 0.02 0.01 0.01 0.00 0.00 0.02 0.05 0.11 0.25
0.16 0.25 0.20 0.27 0.26 0.12 0.13 0.19 0.31 0.44 0.35 0.23 0.23 0.23 0.14 0.09 0.05 0.02 0.01 0.01 0.01 0.00 0.00 0.00 0.00 0.00 0.00 0.00 0.00 0.00 0.00 0.00 0.01 0.02 0.01 0.01 0.01 0.02 0.06 0.12 0.18 0.20 0.18
0.08 0.11 0.17 0.17 0.30 0.15 0.11 0.11 0.11 0.24 0.35 0.28 0.36 0.30 0.20 0.15 0.11 0.10 0.09 0.04 0.02 0.01 0.01 0.01 0.00 0.00 0.00 0.02 0.01 0.01 0.01 0.02 0.02 0.02 0.03 0.03 0.02 0.12 0.17 0.10 0.09 0.15 0.18
0.07 0.05 0.07 0.08 0.14 0.24 0.12 0.09 0.04 0.07 0.14 0.15 0.15 0.16 0.14 0.12 0.10 0.13 0.12 0.11 0.07 0.05 0.04 0.04 0.02 0.03 0.01 0.04 0.03 0.03 0.03 0.05 0.06 0.05 0.08 0.21 0.16 0.24 0.18 0.11 0.13 0.20 0.26
0.05 0.03 0.02 0.03 0.02 0.05 0.03 0.01 0.01 0.01 0.02 0.02 0.09 0.14 0.15 0.12 0.12 0.16 0.13 0.11 0.11 0.12 0.14 0.15 0.11 0.07 0.11 0.09 0.13 0.09 0.06 0.06 0.09 0.16 0.18 0.28 0.50 0.37 0.37 0.33 0.30 0.51 0.56
0.17 0.08 0.01 0.01 0.00 0.00 0.00 0.00 0.00 0.00 0.00 0.00 0.02 0.04 0.10 0.16 0.17 0.16 0.15 0.13 0.16 0.17 0.20 0.24 0.29 0.28 0.27 0.41 0.33 0.37 0.57 0.69 0.57 0.61 0.53 0.64 0.66 0.55 0.59 0.56 0.65 0.67 0.57
0.39 0.24 0.08 0.02 0.01 0.00 0.00 0.00 0.00 0.00 0.01 0.00 0.01 0.03 0.06 0.12 0.19 0.23 0.24 0.25 0.29 0.30 0.26 0.29 0.40 0.45 0.48 0.65 0.75 0.65 0.77 0.89 0.87 1.06 1.20 1.26 1.13 1.03 1.06 1.09 1.06 0.99 0.90
0.28 0.10 0.05 0.05 0.03 0.00 0.00 0.00 0.00 0.00 0.01 0.00 0.00 0.01 0.04 0.10 0.14 0.17 0.21 0.29 0.38 0.51 0.65 0.69 0.68 0.62 0.59 0.65 0.78 0.90 1.01 1.19 1.35 1.70 1.89 1.93 1.89 1.80 1.74 1.69 1.53 1.31 1.09
0.13 0.09 0.04 0.04 0.04 0.00 0.00 0.00 0.00 0.00 0.00 0.00 0.00 0.02 0.05 0.07 0.09 0.14 0.19 0.21 0.30 0.39 0.50 0.59 0.69 0.78 0.84 0.90 0.90 0.92 0.95 1.07 1.20 1.33 1.43 1.44 1.33 1.18 1.02 0.84 0.65 0.46 0.31
0.03 0.03 0.01 0.01 0.00 0.00 0.00 0.00 0.00 0.00 0.00 0.00 0.00 0.01 0.01 0.07 0.15 0.21 0.29 0.36 0.38 0.40 0.48 0.57 0.66 0.91 1.00 1.05 1.00 1.04 1.07 1.05 0.97 0.82 0.74 0.64 0.53 0.43 0.34 0.23 0.16 0.12 0.09

GFSMW_prec_precacc12_108.txt.gz
Total_Precipitation_Accumulation
0.00 0.00 0.00 0.00 0.00 0.00 0.00 0.00 0.00 0.00 0.00 0.00 0.00 0.00 0.00 0.01 0.03 0.07 0.08 0.08 0.12 0.06 0.11 0.23 0.31 0.56 0.61 0.45 0.20 0.31 0.45 0.28 0.12 0.05 0.03 0.01 0.00 0.00 0.00 0.00 0.00 0.00 0.00
0.00 0.00 0.00 0.00 0.00 0.00 0.00 0.00 0.00 0.00 0.00 0.00 0.00 0.00 0.00 0.01 0.01 0.05 0.13 0.13 0.25 0.27 0.13 0.20 0.24 0.38 0.46 0.43 0.26 0.23 0.32 0.21 0.04 0.03 0.03 0.01 0.01 0.01 0.01 0.00 0.00 0.00 0.00
0.00 0.00 0.00 0.00 0.00 0.00 0.00 0.00 0.00 0.00 0.00 0.00 0.00 0.00 0.00 0.01 0.01 0.02 0.05 0.14 0.25 0.36 0.38 0.28 0.26 0.20 0.18 0.22 0.30 0.29 0.21 0.15 0.05 0.03 0.01 0.00 0.01 0.01 0.01 0.00 0.00 0.00 0.00
0.00 0.00 0.00 0.00 0.00 0.00 0.00 0.00 0.00 0.00 0.00 0.00 0.00 0.00 0.00 0.00 0.00 0.00 0.01 0.03 0.21 0.41 0.28 0.43 0.48 0.41 0.19 0.18 0.26 0.33 0.28 0.19 0.14 0.04 0.04 0.00 0.00 0.00 0.00 0.00 0.00 0.00 0.00
0.00 0.00 0.00 0.00 0.00 0.00 0.00 0.00 0.00 0.00 0.00 0.00 0.00 0.00 0.00 0.00 0.00 0.00 0.00 0.02 0.06 0.28 0.45 0.20 0.41 0.41 0.20 0.11 0.15 0.23 0.26 0.20 0.15 0.08 0.04 0.00 0.00 0.00 0.00 0.00 0.00 0.00 0.00
0.00 0.00 0.00 0.00 0.00 0.00 0.00 0.00 0.00 0.00 0.01 0.00 0.00 0.00 0.00 0.00 0.00 0.00 0.00 0.01 0.03 0.08 0.21 0.45 0.36 0.37 0.27 0.08 0.05 0.10 0.13 0.15 0.10 0.06 0.04 0.01 0.00 0.00 0.00 0.00 0.00 0.00 0.01
0.00 0.00 0.00 0.00 0.00 0.00 0.00 0.00 0.00 0.00 0.01 0.01 0.00 0.00 0.00 0.00 0.00 0.00 0.00 0.00 0.01 0.05 0.13 0.18 0.38 0.41 0.35 0.18 0.08 0.06 0.09 0.08 0.06 0.04 0.04 0.01 0.00 0.01 0.02 0.01 0.02 0.00 0.00
0.00 0.00 0.00 0.00 0.00 0.00 0.00 0.00 0.00 0.00 0.01 0.01 0.00 0.00 0.00 0.00 0.00 0.00 0.00 0.00 0.01 0.03 0.06 0.16 0.24 0.36 0.59 0.48 0.28 0.13 0.09 0.07 0.05 0.05 0.02 0.01 0.01 0.00 0.01 0.02 0.04 0.06 0.03
0.00 0.00 0.00 0.00 0.00 0.00 0.00 0.00 0.00 0.00 0.01 0.01 0.01 0.00 0.00 0.00 0.00 0.00 0.00 0.00 0.00 0.05 0.08 0.08 0.16 0.28 0.49 0.54 0.53 0.37 0.18 0.11 0.09 0.08 0.05 0.03 0.01 0.00 0.01 0.02 0.02 0.04 0.06
0.00 0.00 0.00 0.00 0.00 0.00 0.00 0.00 0.00 0.00 0.00 0.00 0.00 0.00 0.00 0.00 0.00 0.00 0.00 0.00 0.00 0.02 0.05 0.04 0.05 0.11 0.22 0.26 0.29 0.35 0.31 0.25 0.18 0.14 0.12 0.09 0.04 0.01 0.02 0.06 0.07 0.09 0.12
0.00 0.00 0.00 0.00 0.00 0.00 0.00 0.00 0.00 0.00 0.00 0.00 0.01 0.00 0.00 0.00 0.00 0.00 0.00 0.00 0.00 0.00 0.02 0.02 0.01 0.05 0.10 0.17 0.17 0.14 0.14 0.15 0.13 0.14 0.14 0.12 0.10 0.03 0.01 0.03 0.05 0.05 0.07
0.01 0.00 0.00 0.00 0.00 0.00 0.00 0.00 0.01 0.01 0.01 0.02 0.01 0.00 0.00 0.00 0.00 0.00 0.00 0.00 0.00 0.00 0.00 0.01 0.00 0.02 0.05 0.08 0.10 0.10 0.12 0.07 0.04 0.03 0.04 0.06 0.10 0.07 0.03 0.03 0.03 0.03 0.05
0.09 0.03 0.03 0.02 0.04 0.04 0.02 0.02 0.02 0.03 0.04 0.01 0.01 0.00 0.00 0.00 0.00 0.00 0.00 0.00 0.00 0.00 0.00 0.00 0.00 0.01 0.03 0.03 0.05 0.05 0.06 0.08 0.05 0.04 0.03 0.02 0.07 0.05 0.02 0.01 0.02 0.03 0.05
0.22 0.20 0.23 0.13 0.15 0.15 0.12 0.07 0.06 0.10 0.09 0.04 0.04 0.04 0.04 0.00 0.00 0.00 0.00 0.00 0.00 0.00 0.00 0.00 0.00 0.00 0.00 0.01 0.01 0.02 0.01 0.02 0.03 0.02 0.02 0.03 0.04 0.02 0.03 0.04 0.04 0.05 0.06
0.24 0.22 0.68 0.48 0.22 0.19 0.21 0.21 0.17 0.24 0.27 0.18 0.11 0.07 0.02 0.00 0.00 0.00 0.00 0.00 0.00 0.00 0.00 0.00 0.00 0.00 0.00 0.00 0.01 0.01 0.00 0.00 0.00 0.00 0.00 0.00 0.01 0.02 0.02 0.03 0.03 0.04 0.07
0.25 0.22 0.52 1.02 0.53 0.31 0.31 0.39 0.45 0.53 0.41 0.32 0.27 0.12 0.01 0.00 0.00 0.00 0.00 0.00 0.00 0.00 0.00 0.00 0.00 0.00 0.00 0.01 0.01 0.01 0.01 0.00 0.00 0.00 0.00 0.00 0.02 0.01 0.02 0.04 0.05 0.07 0.09
0.28 0.26 0.33 0.91 0.82 0.44 0.35 0.39 0.55 0.64 0.53 0.45 0.33 0.18 0.07 0.03 0.01 0.00 0.00 0.00 0.00 0.00 0.00 0.00 0.00 0.00 0.00 0.00 0.00 0.00 0.01 0.01 0.01 0.00 0.00 0.01 0.01 0.02 0.00 0.02 0.03 0.04 0.07
0.16 0.29 0.29 0.52 0.77 0.48 0.28 0.25 0.39 0.51 0.36 0.28 0.26 0.20 0.10 0.05 0.04 0.02 0.01 0.00 0.00 0.00 0.00 0.00 0.00 0.00 0.00 0.01 0.00 0.00 0.00 0.01 0.00 0.00 0.00 0.00 0.00 0.01 0.02 0.00 0.00 0.01 0.03
0.08 0.14 0.25 0.35 0.75 0.66 0.47 0.31 0.16 0.30 0.41 0.28 0.34 0.28 0.16 0.11 0.08 0.08 0.08 0.04 0.01 0.00 0.00 0.00 0.00 0.00 0.00 0.02 0.01 0.00 0.00 0.01 0.01 0.01 0.02 0.03 0.02 0.05 0.06 0.02 0.02 0.04 0.06
0.08 0.12 0.13 0.23 0.51 0.75 0.54 0.48 0.27 0.27 0.28 0.31 0.26 0.15 0.15 0.13 0.10 0.10 0.11 0.10 0.06 0.04 0.02 0.03 0.02 0.03 0.01 0.03 0.03 0.03 0.01 0.02 0.02 0.02 0.03 0.11 0.11 0.16 0.13 0.07 0.08 0.15 0.20
0.08 0.06 0.08 0.15 0.16 0.45 0.52 0.40 0.52 0.39 0.23 0.15 0.10 0.08 0.06 0.07 0.06 0.09 0.12 0.12 0.10 0.10 0.11 0.12 0.09 0.08 0.11 0.10 0.13 0.09 0.06 0.03 0.06 0.14 0.16 0.21 0.42 0.32 0.35 0.32 0.26 0.47 0.50
0.22 0.13 0.04 0.06 0.10 0.07 0.15 0.13 0.18 0.24 0.19 0.09 0.00 0.00 0.00 0.02 0.05 0.07 0.10 0.13 0.16 0.20 0.21 0.24 0.26 0.26 0.22 0.34 0.27 0.34 0.62 0.82 0.70 0.74 0.64 0.69 0.71 0.68 0.76 0.75 0.85 0.85 0.71
0.46 0.31 0.16 0.07 0.04 0.04 0.04 0.01 0.02 0.01 0.00 0.00 0.00 0.00 0.00 0.01 0.04 0.07 0.10 0.12 0.21 0.29 0.26 0.29 0.39 0.44 0.45 0.57 0.65 0.57 0.67 0.81 0.83 1.00 1.12 1.17 1.02 0.92 0.95 1.01 1.06 1.08 1.08
0.40 0.25 0.16 0.13 0.08 0.03 0.00 0.01 0.00 0.00 0.00 0.00 0.00 0.00 0.00 0.01 0.03 0.06 0.09 0.13 0.21 0.36 0.52 0.61 0.63 0.56 0.52 0.56 0.68 0.79 0.84 0.92 1.01 1.27 1.40 1.44 1.43 1.40 1.44 1.50 1.47 1.36 1.22
0.23 0.24 0.16 0.13 0.11 0.07 0.03 0.00 0.00 0.00 0.00 0.00 0.00 0.00 0.00 0.01 0.01 0.04 0.08 0.11 0.20 0.28 0.29 0.32 0.36 0.40 0.44 0.51 0.48 0.50 0.55 0.62 0.72 0.84 0.96 1.02 0.97 0.91 0.83 0.74 0.62 0.47 0.34
0.04 0.06 0.05 0.03 0.02 0.01 0.00 0.00 0.00 0.00 0.00 0.00 0.00 0.00 0.00 0.00 0.00 0.01 0.07 0.13 0.16 0.19 0.24 0.29 0.34 0.50 0.55 0.59 0.57 0.61 0.67 0.70 0.70 0.61 0.56 0.50 0.43 0.37 0.31 0.22 0.16 0.12 0.09

GFSMW_prec_precacc12_114.txt.gz
Total_Precipitation_Accumulation
0.00 0.00 0.00 0.00 0.00 0.00 0.00 0.00 0.00 0.00 0.00 0.00 0.00 0.00 0.00 0.01 0.01 0.01 0.01 0.01 0.02 0.02 0.05 0.07 0.09 0.21 0.36 0.41 0.28 0.41 0.60 0.63 0.52 0.44 0.43 0.32 0.19 0.07 0.02 0.01 0.00 0.01 0.00
0.00 0.00 0.00 0.00 0.00 0.00 0.00 0.00 0.00 0.00 0.00 0.00 0.00 0.00 0.00 0.00 0.00 0.01 0.02 0.02 0.02 0.02 0.05 0.10 0.14 0.19 0.32 0.45 0.33 0.31 0.45 0.48 0.44 0.37 0.35 0.35 0.24 0.13 0.04 0.01 0.00 0.00 0.00
0.00 0.00 0.00 0.00 0.00 0.00 0.00 0.00 0.00 0.00 0.00 0.00 0.00 0.00 0.00 0.01 0.01 0.01 0.02 0.02 0.03 0.04 0.05 0.08 0.13 0.13 0.14 0.25 0.36 0.35 0.26 0.23 0.31 0.28 0.20 0.19 0.11 0.07 0.05 0.02 0.01 0.00 0.00
0.00 0.00 0.00 0.00 0.00 0.00 0.00 0.00 0.00 0.00 0.00 0.00 0.00 0.00 0.00 0.00 0.00 0.00 0.01 0.02 0.03 0.05 0.04 0.10 0.18 0.26 0.19 0.21 0.29 0.39 0.35 0.26 0.28 0.23 0.14 0.06 0.06 0.06 0.07 0.05 0.02 0.01 0.00
0.00 0.00 0.00 0.00 0.00 0.00 0.00 0.00 0.00 0.00 0.00 0.00 0.00 0.00 0.00 0.00 0.00 0.00 0.01 0.02 0.04 0.04 0.07 0.05 0.14 0.26 0.17 0.13 0.17 0.30 0.39 0.32 0.28 0.23 0.21 0.13 0.08 0.06 0.06 0.06 0.04 0.03 0.00
0.00 0.00 0.00 0.00 0.00 0.00 0.00 0.00 0.00 0.00 0.00 0.00 0.00 0.00 0.00 0.00 0.00 0.00 0.00 0.01 0.02 0.05 0.07 0.18 0.14 0.11 0.07 0.05 0.05 0.11 0.17 0.24 0.28 0.26 0.26 0.17 0.10 0.06 0.05 0.03 0.03 0.03 0.01
0.00 0.00 0.00 0.00 0.00 0.00 0.00 0.00 0.00 0.00 0.01 0.00 0.00 0.00 0.00 0.00 0.00 0.00 0.00 0.00 0.01 0.02 0.06 0.05 0.10 0.11 0.07 0.02 0.02 0.04 0.10 0.14 0.18 0.19 0.22 0.23 0.13 0.09 0.06 0.04 0.04 0.02 0.01
0.00 0.00 0.00 0.00 0.00 0.00 0.00 0.00 0.00 0.00 0.01 0.01 0.00 0.00 0.00 0.00 0.00 0.00 0.00 0.00 0.00 0.00 0.01 0.02 0.01 0.02 0.11 0.11 0.08 0.06 0.07 0.09 0.12 0.15 0.16 0.24 0.18 0.12 0.04 0.03 0.04 0.04 0.04
0.00 0.00 0.00 0.00 0.00 0.00 0.00 0.00 0.00 0.00 0.01 0.01 0.01 0.00 0.00 0.00 0.00 0.00 0.00 0.00 0.00 0.00 0.01 0.02 0.01 0.01 0.05 0.16 0.23 0.16 0.07 0.08 0.09 0.11 0.13 0.15 0.14 0.11 0.08 0.05 0.03 0.02 0.05
0.00 0.00 0.00 0.00 0.00 0.00 0.00 0.00 0.00 0.00 0.00 0.00 0.00 0.00 0.00 0.00 0.00 0.00 0.00 0.00 0.00 0.00 0.01 0.03 0.01 0.02 0.06 0.08 0.13 0.18 0.14 0.14 0.17 0.18 0.19 0.19 0.17 0.13 0.11 0.08 0.08 0.03 0.04
0.00 0.00 0.00 0.00 0.00 0.00 0.00 0.00 0.00 0.00 0.00 0.00 0.01 0.01 0.00 0.00 0.00 0.01 0.00 0.00 0.00 0.00 0.01 0.02 0.01 0.01 0.04 0.12 0.15 0.13 0.12 0.17 0.27 0.28 0.28 0.28 0.27 0.21 0.15 0.10 0.07 0.04 0.01
0.01 0.00 0.00 0.00 0.00 0.00 0.00 0.00 0.01 0.01 0.01 0.02 0.02 0.01 0.00 0.01 0.01 0.01 0.00 0.00 0.00 0.00 0.00 0.01 0.01 0.01 0.02 0.04 0.09 0.13 0.17 0.14 0.18 0.19 0.19 0.26 0.32 0.29 0.19 0.15 0.09 0.05 0.03
0.06 0.03 0.03 0.02 0.04 0.04 0.02 0.02 0.03 0.02 0.03 0.03 0.02 0.02 0.01 0.02 0.02 0.02 0.00 0.00 0.00 0.00 0.00 0.01 0.01 0.01 0.03 0.03 0.06 0.08 0.09 0.18 0.22 0.24 0.17 0.16 0.21 0.24 0.24 0.19 0.11 0.07 0.07
0.18 0.20 0.21 0.13 0.14 0.15 0.12 0.07 0.05 0.05 0.04 0.05 0.07 0.08 0.09 0.07 0.05 0.02 0.00 0.00 0.00 0.00 0.00 0.00 0.01 0.00 0.00 0.01 0.02 0.03 0.04 0.08 0.15 0.23 0.19 0.17 0.14 0.16 0.22 0.25 0.17 0.13 0.13
0.20 0.21 0.64 0.43 0.19 0.16 0.16 0.13 0.09 0.12 0.17 0.19 0.17 0.14 0.11 0.07 0.05 0.03 0.01 0.00 0.00 0.00 0.00 0.00 0.00 0.00 0.00 0.00 0.01 0.01 0.00 0.01 0.02 0.06 0.07 0.10 0.11 0.16 0.16 0.18 0.13 0.11 0.15
0.18 0.20 0.47 0.90 0.41 0.19 0.20 0.23 0.24 0.24 0.27 0.28 0.27 0.20 0.16 0.16 0.11 0.05 0.02 0.00 0.00 0.00 0.00 0.00 0.00 0.00 0.00 0.01 0.01 0.01 0.01 0.00 0.00 0.01 0.01 0.05 0.12 0.07 0.07 0.09 0.08 0.08 0.10
0.14 0.23 0.30 0.81 0.71 0.32 0.25 0.23 0.29 0.32 0.32 0.35 0.34 0.25 0.21 0.20 0.15 0.09 0.04 0.02 0.01 0.00 0.00 0.00 0.00 0.00 0.00 0.00 0.00 0.00 0.01 0.01 0.01 0.00 0.00 0.01 0.03 0.06 0.01 0.04 0.06 0.05 0.07
0.09 0.22 0.26 0.51 0.80 0.53 0.39 0.34 0.40 0.54 0.52 0.48 0.42 0.28 0.19 0.17 0.16 0.10 0.06 0.02 0.01 0.00 0.00 0.00 0.00 0.00 0.00 0.01 0.00 0.00 0.00 0.01 0.01 0.00 0.00 0.00 0.00 0.01 0.02 0.01 0.02 0.02 0.02
0.06 0.12 0.23 0.39 0.95 0.90 0.72 0.69 0.50 0.49 0.54 0.45 0.38 0.32 0.27 0.16 0.10 0.06 0.03 0.01 0.01 0.01 0.01 0.00 0.00 0.00 0.00 0.01 0.01 0.00 0.00 0.02 0.02 0.01 0.02 0.03 0.01 0.02 0.04 0.01 0.02 0.05 0.07
0.07 0.11 0.13 0.29 0.70 1.17 1.05 1.29 0.96 0.79 0.72 0.57 0.47 0.36 0.29 0.21 0.11 0.05 0.04 0.03 0.03 0.02 0.02 0.01 0.01 0.03 0.01 0.02 0.02 0.02 0.00 0.00 0.02 0.05 0.04 0.07 0.04 0.05 0.06 0.03 0.00 0.01 0.03
0.08 0.07 0.10 0.20 0.33 0.85 1.13 1.25 1.52 1.22 0.94 0.81 0.52 0.59 0.42 0.23 0.14 0.09 0.07 0.08 0.08 0.07 0.07 0.09 0.06 0.06 0.07 0.06 0.07 0.04 0.03 0.01 0.02 0.08 0.14 0.19 0.38 0.29 0.34 0.30 0.22 0.43 0.39
0.13 0.12 0.07 0.12 0.26 0.33 0.76 0.97 1.14 1.22 1.14 1.12 0.91 0.67 0.83 0.57 0.30 0.23 0.14 0.07 0.10 0.13 0.13 0.12 0.11 0.10 0.09 0.14 0.10 0.15 0.39 0.64 0.63 0.73 0.67 0.63 0.64 0.71 0.87 0.88 0.96 0.90 0.71
0.25 0.24 0.20 0.16 0.15 0.21 0.34 0.55 0.75 0.78 0.88 0.79 0.86 0.90 0.72 0.78 0.66 0.44 0.38 0.19 0.10 0.12 0.10 0.12 0.12 0.10 0.08 0.12 0.19 0.14 0.20 0.33 0.42 0.63 0.77 0.82 0.77 0.74 0.79 0.87 0.90 0.88 0.84
0.29 0.31 0.25 0.27 0.24 0.19 0.17 0.18 0.16 0.23 0.32 0.39 0.43 0.48 0.59 0.52 0.54 0.50 0.46 0.33 0.18 0.12 0.10 0.12 0.15 0.12 0.11 0.10 0.13 0.20 0.25 0.33 0.39 0.50 0.58 0.63 0.65 0.61 0.65 0.71 0.72 0.71 0.70
0.23 0.30 0.28 0.30 0.28 0.23 0.15 0.10 0.07 0.05 0.08 0.06 0.04 0.05 0.12 0.16 0.19 0.25 0.26 0.20 0.16 0.13 0.09 0.07 0.07 0.09 0.11 0.16 0.13 0.11 0.12 0.12 0.15 0.15 0.16 0.18 0.20 0.23 0.26 0.28 0.29 0.27 0.22
0.03 0.07 0.10 0.10 0.09 0.06 0.06 0.04 0.03 0.02 0.01 0.02 0.01 0.01 0.01 0.01 0.02 0.02 0.07 0.10 0.08 0.06 0.07 0.07 0.05 0.10 0.09 0.07 0.04 0.04 0.04 0.05 0.05 0.03 0.06 0.09 0.10 0.10 0.11 0.09 0.08 0.07 0.06